Weather History for Cannes, France

Change the Weather History Date:

Saturday, May 11, 2013

  Actual Average Record
Temperature  
Mean Temperature 63 °F -  
Max Temperature 73 °F 70 °F 80 °F (2014)
Min Temperature 53 °F 59 °F 51 °F (2006)
Degree Days  
Heating Degree Days 2    
Growing Degree Days 13 (Base 50)    
Moisture  
Dew Point 53 °F    
Average Humidity 68    
Maximum Humidity 94    
Minimum Humidity 47    
Precipitation  
Precipitation 0.00 in - - ()
Sea Level Pressure  
Sea Level Pressure 29.84 in    
Wind  
Wind Speed 3 mph ()    
Max Wind Speed 9 mph    
Max Gust Speed -    
Visibility 6.2 miles    
Events      
Averages and records for this station are not official NWS values.
T = Trace of Precipitation, MM = Missing Value Source: Averaged Metar Reports

Daily Weather History Graph

Daily Weather History Graph

Search for Another Location

Airport:

Trip Planner

Search our weather history database for the weather conditions in past years. The results will help you decide how hot, cold, wet, or windy it might be!

Date:

Astronomy

May. 11, 2013 Rise Set
Actual Time 6:11 AM CEST 8:45 PM CEST
Civil Twilight 5:39 AM CEST 9:18 PM CEST
Nautical Twilight 4:58 AM CEST 9:59 PM CEST
Astronomical Twilight 4:12 AM CEST 10:46 PM CEST
Moon 7:06 AM CEST (5/11) 10:13 PM CEST (5/11)
Length of Visible Light 15h 39m
Length of Day
14h 33m
New Moon, 2% of the Moon is Illuminated
May 11
New Moon
May 18
First Quarter
May 25
Full
May 31
Last Quarter
Jun 8
New

Hourly Weather History & Observations

Time (CEST) Temp. Dew Point Humidity Pressure Visibility Wind Dir Wind Speed Gust Speed Precip Events Conditions
12:00 AM 64.4 °F 59.0 °F 83% 29.89 in 6.2 mi South 3.5 mph - N/A   Overcast
12:30 AM 62.6 °F 59.0 °F 88% 29.89 in 6.2 mi South 2.3 mph - N/A   Mostly Cloudy
1:00 AM 60.8 °F 59.0 °F 94% 29.89 in 6.2 mi Calm Calm - N/A   Partly Cloudy
1:30 AM 60.8 °F 59.0 °F 94% 29.89 in 6.2 mi Variable 2.3 mph - N/A   Mostly Cloudy
2:00 AM 60.8 °F 57.2 °F 88% 29.89 in 6.2 mi Variable 2.3 mph - N/A   Overcast
2:30 AM 60.8 °F 57.2 °F 88% 29.86 in 6.2 mi Calm Calm - N/A   Mostly Cloudy
3:00 AM 59.0 °F 53.6 °F 82% 29.86 in 6.2 mi Calm Calm - N/A   Partly Cloudy
3:30 AM 55.4 °F 50.0 °F 82% 29.86 in 6.2 mi South 1.2 mph - N/A   Mostly Cloudy
4:00 AM 55.4 °F 51.8 °F 88% 29.86 in 6.2 mi Calm Calm - N/A   Mostly Cloudy
4:30 AM 57.2 °F 50.0 °F 77% 29.86 in 6.2 mi Variable 3.5 mph - N/A   Overcast
5:00 AM 55.4 °F 48.2 °F 77% 29.86 in 6.2 mi Variable 3.5 mph - N/A   Overcast
5:30 AM 53.6 °F 48.2 °F 82% 29.83 in 6.2 mi Variable 2.3 mph - N/A   Overcast
6:00 AM 53.6 °F 46.4 °F 77% 29.83 in 6.2 mi Variable 3.5 mph - N/A   Partly Cloudy
6:30 AM 53.6 °F 46.4 °F 77% 29.86 in 6.2 mi North 4.6 mph - N/A   Unknown
7:00 AM 53.6 °F 46.4 °F 77% 29.86 in 6.2 mi Variable 3.5 mph - N/A   Unknown
7:30 AM 55.4 °F 46.4 °F 72% 29.86 in 6.2 mi North 4.6 mph - N/A   Unknown
8:00 AM 57.2 °F 48.2 °F 72% 29.86 in 6.2 mi Variable 2.3 mph - N/A   Unknown
8:30 AM 60.8 °F 48.2 °F 63% 29.86 in 6.2 mi Variable 1.2 mph - N/A   Unknown
9:00 AM 62.6 °F 48.2 °F 59% 29.86 in 6.2 mi Variable 1.2 mph - N/A   Unknown
9:30 AM 66.2 °F 51.8 °F 60% 29.86 in 6.2 mi Variable 2.3 mph - N/A   Unknown
10:00 AM 68.0 °F 53.6 °F 60% 29.86 in 6.2 mi Variable 1.2 mph - N/A   Unknown
10:30 AM 69.8 °F 57.2 °F 64% 29.86 in 6.2 mi South 5.8 mph - N/A   Unknown
11:00 AM 69.8 °F 57.2 °F 64% 29.86 in 6.2 mi SSE 5.8 mph - N/A   Unknown
11:30 AM 69.8 °F 57.2 °F 64% 29.86 in 6.2 mi SE 6.9 mph - N/A   Unknown
12:00 PM 69.8 °F 57.2 °F 64% 29.86 in 6.2 mi SSE 6.9 mph - N/A   Unknown
12:30 PM 69.8 °F 55.4 °F 60% 29.86 in 6.2 mi SSE 6.9 mph - N/A   Unknown
1:00 PM 71.6 °F 55.4 °F 57% 29.86 in 6.2 mi SE 8.1 mph - N/A   Unknown
1:30 PM 71.6 °F 55.4 °F 57% 29.83 in 6.2 mi SE 8.1 mph - N/A   Unknown
2:00 PM 71.6 °F 57.2 °F 60% 29.83 in 6.2 mi SSE 8.1 mph - N/A   Unknown
2:30 PM 71.6 °F 51.8 °F 50% 29.83 in 6.2 mi SSE 9.2 mph - N/A   Unknown
3:00 PM 71.6 °F 53.6 °F 53% 29.83 in 6.2 mi SE 9.2 mph - N/A   Unknown
3:30 PM 71.6 °F 51.8 °F 50% 29.83 in 6.2 mi ESE 9.2 mph - N/A   Unknown
4:00 PM 73.4 °F 51.8 °F 47% 29.80 in 6.2 mi East 9.2 mph - N/A   Unknown
4:30 PM 73.4 °F 53.6 °F 50% 29.80 in 6.2 mi East 8.1 mph - N/A   Unknown
5:00 PM 73.4 °F 53.6 °F 50% 29.80 in 6.2 mi ENE 8.1 mph - N/A   Unknown
5:30 PM 71.6 °F 55.4 °F 57% 29.80 in 6.2 mi East 6.9 mph - N/A   Unknown
6:00 PM 71.6 °F 53.6 °F 53% 29.80 in 6.2 mi ENE 5.8 mph - N/A   Unknown
6:30 PM 69.8 °F 51.8 °F 53% 29.80 in 6.2 mi NE 6.9 mph - N/A   Unknown
7:00 PM 69.8 °F 51.8 °F 53% 29.80 in 6.2 mi ENE 5.8 mph - N/A   Unknown
7:30 PM 68.0 °F 51.8 °F 56% 29.80 in 6.2 mi ENE 6.9 mph - N/A   Unknown
8:00 PM 66.2 °F 51.8 °F 60% 29.80 in 6.2 mi NE 4.6 mph - N/A   Unknown
8:30 PM 64.4 °F 53.6 °F 68% 29.80 in 6.2 mi Variable 3.5 mph - N/A   Unknown
9:00 PM 64.4 °F 53.6 °F 68% 29.80 in 6.2 mi Variable 3.5 mph - N/A   Unknown
9:30 PM 62.6 °F 51.8 °F 68% 29.83 in 6.2 mi Variable 1.2 mph - N/A   Unknown
10:00 PM 60.8 °F 51.8 °F 72% 29.83 in 6.2 mi Calm Calm - N/A   Unknown
10:30 PM 59.0 °F 51.8 °F 77% 29.83 in 6.2 mi Variable 2.3 mph - N/A   Unknown
11:00 PM 59.0 °F 51.8 °F 77% 29.86 in 6.2 mi Variable 3.5 mph - N/A   Unknown
11:30 PM 57.2 °F 51.8 °F 82% 29.86 in 6.2 mi Variable 2.3 mph - N/A   Unknown